FW3619 Weather Reports


Display with metric or nautical units.
time (UTC)temp
F
wind
direction
speed
MPH
gust
MPH
rain 1hr
in
rain 24hr
in
rain mn
in
humidity
%
barometer
mb
20260504081921 41 95 1.0 2.0 0.00 0.00 0.00 86 1014.6
20260504081418 41 95 2.0 2.0 0.00 0.00 0.00 85 1014.7
20260504080914 41 95 0.0 0.0 0.00 0.00 0.00 84 1014.5
20260504080411 41 95 0.0 0.0 0.00 0.00 0.00 86 1014.6
20260504070338 44 117 0.0 2.0 0.00 0.00 0.00 74 1014.4
20260504050715 40 60 0.0 0.0 0.00 0.00 0.00 89 1014.8
20260504050212 40 60 2.0 2.0 0.00 0.00 0.00 90 1014.6
20260504045709 41 60 0.0 0.0 0.00 0.00 0.00 89 1014.9
20260504045204 41 60 0.0 0.0 0.00 0.00 0.00 86 1015.0
20260504044702 40 60 0.0 0.0 0.00 0.00 0.00 84 1014.8
20260504044159 40 60 0.0 0.0 0.00 0.00 0.00 83 1014.7
20260504043656 40 60 0.0 0.0 0.00 0.00 0.00 84 1014.7
20260504043153 39 60 0.0 2.0 0.00 0.00 0.00 88 1014.6
20260504042650 39 60 1.0 2.0 0.00 0.00 0.00 90 1014.6
20260504042147 39 60 0.0 0.0 0.00 0.00 0.00 90 1014.7
20260504041642 39 60 0.0 2.0 0.00 0.00 0.00 90 1014.7
20260504041138 39 60 2.0 2.0 0.00 0.00 0.00 90 1014.5
20260504040636 39 60 2.0 2.0 0.00 0.00 0.00 90 1014.6
20260504040133 39 60 0.0 2.0 0.00 0.00 0.00 89 1014.6
20260504035629 38 59 2.0 2.0 0.00 0.00 0.00 88 1014.5
20260504035126 38 60 0.0 0.0 0.00 0.00 0.00 89 1014.8
20260504034624 38 60 1.0 2.0 0.00 0.00 0.00 87 1014.6
20260504034121 38 60 0.0 0.0 0.00 0.00 0.00 86 1014.6
20260504033618 38 60 2.0 2.0 0.00 0.00 0.00 86 1014.4
20260504033116 39 60 1.0 2.0 0.00 0.00 0.00 87 1014.4
20260504032612 39 60 2.0 2.0 0.00 0.00 0.00 87 1014.5
20260504032109 39 60 0.0 0.0 0.00 0.00 0.00 84 1014.3
20260504031607 40 60 0.0 0.0 0.00 0.00 0.00 84 1014.4
20260504031103 40 64 0.0 0.0 0.00 0.00 0.00 83 1014.4
20260504030600 39 64 0.0 0.0 0.00 0.00 0.00 81 1014.5
20260504030056 39 64 0.0 2.0 0.00 0.00 0.00 83 1014.3
20260504025553 39 64 0.0 0.0 0.00 0.00 0.00 82 1014.3
20260504025050 39 63 3.0 3.0 0.00 0.00 0.00 84 1014.2
20260504024547 40 64 0.0 0.0 0.00 0.00 0.00 82 1014.4
20260504024044 40 64 0.0 2.0 0.00 0.00 0.00 79 1014.3
20260504023540 41 64 0.0 0.0 0.00 0.00 0.00 78 1014.4
20260504023036 41 64 0.0 2.0 0.00 0.00 0.00 74 1014.4
20260504022532 42 63 1.0 2.0 0.00 0.00 0.00 72 1014.2
20260504022029 44 78 0.0 2.0 0.00 0.00 0.00 66 1014.2
20260504021526 47 60 1.0 5.0 0.00 0.00 0.00 66 1014.2
20260504021023 49 136 3.0 3.0 0.00 0.00 0.00 51 1014.0
20260504020520 49 119 1.0 2.0 0.00 0.00 0.00 52 1013.9
20260504020017 50 139 2.0 3.0 0.00 0.00 0.00 49 1014.0
20260504015513 50 120 1.0 2.0 0.00 0.00 0.00 49 1014.1
20260504015009 49 172 3.0 3.0 0.00 0.00 0.00 48 1014.1
20260504014505 48 160 4.0 5.0 0.00 0.00 0.00 51 1013.9
20260504014003 48 91 0.0 3.0 0.00 0.00 0.00 53 1013.9
20260504013501 48 97 0.0 2.0 0.00 0.00 0.00 51 1013.7
20260504012956 48 192 1.0 3.0 0.00 0.00 0.00 50 1013.6
20260504012455 48 114 1.0 3.0 0.00 0.00 0.00 53 1013.8
20260504011952 47 120 0.0 2.0 0.00 0.00 0.00 52 1013.6
20260504011448 46 114 0.0 0.0 0.00 0.00 0.00 51 1013.6
20260504010944 46 124 2.0 5.0 0.00 0.00 0.00 56 1013.5
20260504010440 46 121 2.0 2.0 0.00 0.00 0.00 57 1013.6
20260504005936 47 120 0.0 0.0 0.00 0.00 0.00 60 1013.5
20260504005434 47 152 2.0 3.0 0.00 0.00 0.00 54 1013.1
20260504004931 47 105 0.0 5.0 0.00 0.00 0.00 54 1013.4
20260504004429 47 97 0.0 0.0 0.00 0.00 0.00 55 1013.0
20260504003925 48 95 0.0 2.0 0.00 0.00 0.00 52 1012.8
20260504003422 48 120 0.0 0.0 0.00 0.00 0.00 49 1013.0
20260504002918 49 120 0.0 2.0 0.00 0.00 0.00 47 1013.0
20260504002415 49 120 0.0 2.0 0.00 0.00 0.00 47 1012.8
20260504001913 49 120 1.0 2.0 0.00 0.00 0.00 49 1012.8
20260504001410 49 110 0.0 2.0 0.00 0.00 0.00 49 1012.8
20260504000906 49 109 0.0 0.0 0.00 0.00 0.00 50 1012.6
20260504000404 49 111 0.0 0.0 0.00 0.00 0.00 54 1012.5
20260503235901 49 125 0.0 0.0 0.00 0.00 0.00 54 1012.5
20260503235359 50 126 0.0 2.0 0.00 0.00 0.00 53 1012.3
20260503234856 50 125 0.0 2.0 0.00 0.00 0.00 54 1012.5
20260503234354 51 126 0.0 2.0 0.00 0.00 0.00 54 1012.3
20260503233851 51 71 0.0 0.0 0.00 0.00 0.00 50 1012.5
20260503233347 51 71 0.0 0.0 0.00 0.00 0.00 50 1012.5
20260503232844 51 71 2.0 3.0 0.00 0.00 0.00 50 1012.3
20260503232341 52 64 2.0 3.0 0.00 0.00 0.00 53 1012.3
20260503231839 52 33 3.0 5.0 0.00 0.00 0.00 50 1012.3
20260503231335 53 81 0.0 0.0 0.00 0.00 0.00 48 1012.5
20260503230826 53 353 5.0 5.0 0.00 0.00 0.00 48 1012.2
20260503230323 53 8 9.0 10.0 0.00 0.00 0.00 48 1012.3
20260503225821 53 17 3.0 5.0 0.00 0.00 0.00 51 1012.3
20260503225316 53 356 5.0 10.0 0.00 0.00 0.00 47 1012.5
20260503224813 53 344 11.0 14.0 0.00 0.00 0.00 45 1012.5
20260503224310 54 336 8.0 12.0 0.00 0.00 0.00 46 1012.2
20260503223808 54 354 10.0 14.0 0.00 0.00 0.00 45 1012.2
20260503223305 54 77 3.0 12.0 0.00 0.00 0.00 48 1012.1
20260503222801 54 353 12.0 14.0 0.00 0.00 0.00 45 1012.6
20260503222300 54 315 11.0 14.0 0.00 0.00 0.00 45 1012.1
20260503221757 54 333 9.0 15.0 0.00 0.00 0.00 48 1012.2
20260503221255 54 326 8.0 10.0 0.00 0.00 0.00 47 1012.2
20260503220751 53 343 6.0 15.0 0.00 0.00 0.00 47 1012.1
20260503220248 53 113 1.0 14.0 0.00 0.00 0.00 46 1012.3
20260503215745 54 187 4.0 21.0 0.00 0.00 0.00 46 1012.3
20260503215242 52 106 0.0 5.0 0.00 0.00 0.00 49 1012.2
20260503214740 53 171 1.0 3.0 0.00 0.00 0.00 47 1012.6
20260503214237 53 52 2.0 3.0 0.00 0.00 0.00 48 1012.5
20260503213735 53 105 1.0 9.0 0.00 0.00 0.00 47 1012.0
20260503213232 53 55 2.0 12.0 0.00 0.00 0.00 48 1012.2
20260503212729 54 166 3.0 31.0 0.00 0.00 0.00 43 1012.2
20260503212226 54 310 3.0 24.0 0.00 0.00 0.00 46 1012.5
20260503211724 54 343 20.0 31.0 0.00 0.00 0.00 46 1012.2
20260503211220 54 348 17.0 22.0 0.00 0.00 0.00 44 1012.2
20260503210715 53 345 5.0 15.0 0.00 0.00 0.00 49 1012.1
20260503210213 53 326 4.0 17.0 0.00 0.00 0.00 47 1012.1
20260503205708 53 323 13.0 17.0 0.00 0.00 0.00 47 1011.9
20260503205205 53 329 12.0 24.0 0.00 0.00 0.00 44 1011.8
20260503204701 53 326 10.0 24.0 0.00 0.00 0.00 46 1012.0
20260503204159 53 308 8.0 22.0 0.00 0.00 0.00 49 1012.1
20260503203656 53 301 19.0 24.0 0.00 0.00 0.00 46 1011.9
20260503203154 53 335 10.0 22.0 0.00 0.00 0.00 49 1012.0
20260503202650 52 351 13.0 19.0 0.00 0.00 0.00 45 1011.9
20260503202148 52 341 13.0 19.0 0.00 0.00 0.00 46 1012.0
20260503201646 52 316 13.0 29.0 0.00 0.00 0.00 46 1011.8
20260503201143 53 353 21.0 27.0 0.00 0.00 0.00 45 1011.8
20260503200639 52 316 4.0 19.0 0.00 0.00 0.00 48 1012.1
20260503200136 52 322 23.0 29.0 0.00 0.00 0.00 45 1011.9
20260503195633 52 335 23.0 29.0 0.00 0.00 0.00 44 1012.0
20260503195130 52 325 16.0 29.0 0.00 0.00 0.00 44 1011.9
20260503194627 52 7 17.0 26.0 0.00 0.00 0.00 47 1011.9
20260503194122 52 326 13.0 15.0 0.00 0.00 0.00 50 1011.9
20260503193620 53 345 16.0 22.0 0.00 0.00 0.00 47 1011.8
20260503193114 52 359 20.0 27.0 0.00 0.00 0.00 45 1011.8
20260503192611 52 336 21.0 27.0 0.00 0.00 0.00 46 1011.9
20260503192106 52 300 19.0 27.0 0.00 0.00 0.00 48 1012.0
20260503191604 52 334 19.0 31.0 0.00 0.00 0.00 47 1011.9
20260503191100 52 354 22.0 31.0 0.00 0.00 0.00 44 1011.8
20260503190557 52 329 12.0 17.0 0.00 0.00 0.00 48 1011.9
20260503190054 52 298 6.0 24.0 0.00 0.00 0.00 46 1011.8
20260503185551 52 281 12.0 24.0 0.00 0.00 0.00 49 1011.7
20260503185050 52 312 10.0 15.0 0.00 0.00 0.00 48 1011.9
20260503184546 52 29 20.0 22.0 0.00 0.00 0.00 46 1011.9
20260503184043 52 274 4.0 24.0 0.00 0.00 0.00 47 1012.0
20260503183540 52 318 3.0 19.0 0.00 0.00 0.00 48 1011.9
20260503183037 52 55 4.0 24.0 0.00 0.00 0.00 48 1011.7
20260503182536 53 339 12.0 21.0 0.00 0.00 0.00 51 1012.1
20260503182033 52 44 2.0 3.0 0.00 0.00 0.00 51 1011.9
20260503181530 54 317 13.0 21.0 0.00 0.00 0.00 51 1012.0
20260503181026 55 290 10.0 15.0 0.00 0.00 0.00 49 1011.9
20260503180524 55 13 5.0 12.0 0.00 0.00 0.00 50 1011.9
20260503180021 53 161 3.0 9.0 0.00 0.00 0.00 48 1012.0
20260503175518 53 324 15.0 27.0 0.00 0.00 0.00 50 1012.0
20260503175015 52 327 15.0 31.0 0.00 0.00 0.00 49 1012.1
20260503174513 53 350 17.0 26.0 0.00 0.00 0.00 51 1012.0
20260503174008 52 47 7.0 14.0 0.00 0.00 0.00 47 1011.7
20260503173504 52 218 4.0 12.0 0.00 0.00 0.00 50 1011.9
20260503173000 52 299 12.0 29.0 0.00 0.00 0.00 51 1011.6
20260503172458 53 328 17.0 24.0 0.00 0.00 0.00 49 1011.6
20260503171955 53 143 4.0 12.0 0.00 0.00 0.00 48 1011.7
20260503171451 53 331 19.0 29.0 0.00 0.00 0.00 49 1011.6
20260503170949 52 67 3.0 7.0 0.00 0.00 0.00 49 1011.2
20260503170445 53 339 14.0 22.0 0.00 0.00 0.00 52 1011.5
20260503150837 50 337 13.0 22.0 0.00 0.00 0.00 57 1011.8
20260503150333 50 328 13.0 26.0 0.00 0.00 0.00 56 1011.8
20260503140257 50 340 14.0 21.0 0.00 0.00 0.00 63 1012.2
20260503131227 48 52 7.0 12.0 0.00 0.00 0.00 73 1012.5
20260503130725 48 320 10.0 19.0 0.00 0.00 0.00 72 1012.6
20260503130222 47 247 5.0 14.0 0.00 0.00 0.00 71 1012.6
20260503120148 44 317 7.0 9.0 0.00 0.00 0.00 78 1012.7
20260503110615 40 115 0.0 0.0 0.00 0.00 0.00 86 1012.7
20260503110113 40 115 0.0 0.0 0.00 0.00 0.00 88 1012.6